Temp
2 2 2 2 1 1 1 2 4 2 3 5 6 7 10 8 10 9 10 10 11 11 12 11 11 12 13 13 14 13 14 13 11 13 16 16 15 15 14 11 12 13 11 10
2 2 2 2 1 1 1 2 3 2 3 5 6 9 10 8 10 10 10 10 10 10 9 8 9 11 12 12 12 12 13 11 10 12 14 15 14 15 15 15 14 11 9 11
2 1 1 1 1 1 2 2 2 1 1 6 8 8 8 8 7 9 9 9 9 9 8 9 6 9 11 10 11 8 9 11 11 10 12 13 12 12 13 12 10 10 10 10
1 1 1 1 1 1 1 2 4 3 2 3 7 9 8 8 8 8 8 9 8 8 6 7 8 9 10 10 10 10 10 9 10 11 11 12 12 13 13 12 13 11 10 12
2 1 1 1 1 1 1 2 4 5 7 4 6 7 7 8 9 8 8 8 9 9 8 8 8 9 9 8 9 10 11 8 9 6 9 10 9 9 9 11 11 12 12 12
0 1 0 0 1 1 1 2 4 5 6 6 6 6 6 7 8 8 8 9 9 8 9 8 8 7 7 7 8 8 9 8 8 8 10 11 10 9 10 12 13 13 12 13
1 1 0 0 1 1 2 2 3 4 4 7 7 7 7 7 7 7 7 7 7 8 7 6 7 7 7 7 7 8 8 8 8 8 9 7 10 13 14 13 13 14 14 14
0 -0 0 0 0 1 1 1 2 3 4 6 6 6 7 7 7 6 7 7 7 7 4 5 5 8 7 7 8 9 9 8 7 7 8 10 12 14 13 12 12 14 13 13
1 0 0 0 0 1 0 1 1 2 4 5 6 6 6 6 6 6 6 6 6 5 3 3 5 7 10 10 10 10 9 8 7 8 7 8 12 12 12 12 10 11 11 11
-0 0 0 0 0 0 -0 0 1 1 1 4 4 5 5 5 6 7 7 5 6 5 3 4 6 7 10 9 10 8 8 6 6 7 8 10 14 12 11 9 9 9 10 10
0 0 0 0 0 0 -0 0 -0 1 2 3 3 3 4 4 3 4 6 6 6 3 3 5 8 8 9 9 11 8 9 7 7 8 8 7 13 11 9 10 9 9 9 9
0 0 -0 0 0 -0 -1 -0 -0 0 0 1 1 2 3 4 4 3 4 5 3 2 3 4 7 7 9 9 7 11 8 10 10 10 10 11 10 10 9 9 10 8 8 7
-0 -0 -0 0 -0 -0 -1 -1 -1 -1 -0 -0 0 2 2 2 2 2 3 4 4 2 2 3 4 5 9 7 9 10 9 13 11 10 11 12 10 8 8 8 8 8 7 6
-0 -0 -0 -0 -1 -0 -1 -1 -1 -1 -1 0 2 3 2 2 3 2 2 2 3 2 2 1 3 6 8 9 9 10 11 10 10 10 11 10 9 9 8 7 6 6 6 5
-0 -0 -0 -1 -0 -0 -1 -1 -1 -1 0 1 2 2 3 3 3 3 2 2 2 2 1 1 4 7 7 9 10 10 11 11 9 8 9 10 9 8 7 6 6 5 5 4
-1 -1 -1 -0 -0 -1 -1 -1 -1 -1 -1 -1 2 4 4 4 3 3 3 2 2 2 0 2 3 5 6 6 8 10 10 11 10 9 7 6 6 6 6 6 5 4 4 4
-1 -0 -0 -1 -1 -1 -1 -1 -0 -0 -1 -1 1 5 4 3 3 3 3 2 2 1 1 1 2 3 4 4 7 10 9 9 7 6 5 5 5 6 4 4 4 3 3 3
-0 -1 -1 -1 -1 -1 -1 -1 0 -1 -1 -1 1 4 4 1 1 1 1 0 0 -0 -0 0 2 4 3 4 8 8 8 7 5 5 5 6 6 5 4 4 3 3 2 2
-1 -1 -1 -2 -1 -1 -1 -1 -1 -1 -1 -1 0 3 4 1 -0 -0 -0 0 1 0 2 3 2 3 4 6 8 9 7 6 6 5 5 5 5 5 4 3 3 2 1 0
-1 -1 -1 -1 -1 -1 -1 -1 -1 -1 -1 -1 0 3 4 1 0 1 1 2 3 4 6 4 4 6 7 8 8 8 7 6 5 5 5 5 4 4 3 2 2 2 1 0
-2 -2 -2 -2 -2 -1 -1 -1 -1 -1 0 -1 1 4 4 2 3 3 3 5 6 6 6 6 6 7 8 7 7 7 6 5 5 5 5 4 4 3 2 1 1 1 -0 -1
-1 -1 -2 -2 -1 -1 -0 1 1 2 4 2 4 4 3 0 1 2 4 5 6 6 6 5 6 6 5 5 6 5 4 4 4 4 4 3 3 2 1 1 0 -0 -1 -2
-1 -1 -2 -2 -1 1 1 2 3 4 4 3 2 2 1 0 0 2 5 4 4 5 4 5 6 4 5 5 4 4 3 3 3 3 2 2 2 1 1 0 -1 -1 -1 -1
-2 -1 -1 0 0 2 4 4 5 1 3 3 2 0 1 1 2 3 3 4 4 4 4 6 5 3 2 4 3 3 3 2 2 1 1 1 -0 -0 -0 -1 -1 -1 -1 -2
-2 -1 1 1 2 1 -0 -1 0 -0 1 2 1 1 2 3 2 4 3 2 3 6 6 4 -0 -1 1 2 2 2 2 2 2 1 1 1 0 -0 -0 -1 -1 -1 -2 -2
-2 -1 -1 0 0 0 -1 -0 -0 -0 1 3 4 5 4 4 5 3 4 5 5 5 2 -1 -1 -1 -0 -0 1 2 2 1 1 1 1 0 -0 -0 -1 -1 -1 -2 -2 -2
-2 -1 -2 -2 -1 -0 -1 -1 -0 0 2 3 5 3 4 4 5 4 5 4 1 -0 -2 -2 -2 -2 -2 0 1 1 1 1 1 1 0 0 -0 -1 -1 -1 -2 -2 -2 -3
Height
1474 1479 1482 1489 1492 1499 1502 1504 1506 1504 1509 1511 1507 1504 1499 1502 1503 1504 1503 1503 1501 1500 1500 1502 1498 1497 1491 1495 1493 1490 1485 1487 1490 1480 1470 1469 1471 1470 1470 1482 1475 1468 1474 1472
1467 1472 1478 1482 1488 1494 1500 1501 1502 1504 1507 1499 1500 1499 1499 1506 1502 1500 1500 1502 1502 1503 1507 1509 1506 1499 1497 1496 1494 1493 1490 1488 1487 1474 1468 1467 1469 1468 1465 1462 1464 1472 1480 1467
1459 1465 1471 1477 1483 1490 1496 1499 1500 1503 1502 1496 1491 1495 1498 1501 1502 1501 1501 1502 1504 1504 1506 1505 1511 1501 1499 1499 1497 1500 1501 1491 1486 1483 1476 1474 1477 1476 1469 1470 1477 1472 1468 1466
1450 1456 1464 1470 1478 1485 1492 1492 1489 1493 1495 1498 1494 1490 1493 1494 1497 1501 1501 1500 1502 1502 1508 1506 1502 1499 1497 1497 1498 1499 1500 1492 1488 1483 1480 1477 1472 1467 1465 1464 1459 1463 1463 1459
1440 1448 1455 1462 1472 1481 1487 1487 1486 1487 1483 1493 1494 1491 1492 1492 1491 1497 1498 1497 1494 1497 1497 1499 1498 1496 1497 1497 1498 1492 1489 1487 1488 1492 1487 1479 1476 1476 1476 1469 1464 1460 1455 1449
1428 1439 1449 1459 1467 1474 1479 1483 1483 1485 1483 1485 1490 1489 1493 1493 1493 1494 1496 1495 1495 1494 1496 1497 1498 1499 1501 1500 1497 1492 1489 1487 1486 1478 1474 1468 1463 1463 1462 1455 1452 1448 1445 1443
1421 1430 1441 1452 1460 1465 1473 1477 1482 1483 1481 1480 1482 1487 1490 1491 1494 1493 1494 1495 1496 1497 1497 1499 1497 1496 1495 1494 1491 1490 1486 1485 1482 1478 1476 1475 1455 1447 1443 1442 1442 1442 1440 1440
1417 1424 1435 1446 1455 1463 1468 1472 1479 1480 1481 1480 1483 1485 1487 1488 1490 1493 1493 1491 1493 1495 1499 1498 1493 1481 1482 1477 1476 1475 1477 1478 1480 1477 1469 1456 1444 1437 1437 1441 1443 1439 1437 1441
1412 1421 1431 1442 1451 1459 1465 1469 1476 1479 1481 1479 1481 1482 1485 1485 1487 1490 1489 1490 1491 1494 1497 1497 1486 1471 1459 1454 1453 1459 1467 1475 1479 1467 1465 1456 1436 1439 1441 1444 1444 1443 1445 1445
1406 1416 1427 1438 1447 1455 1462 1466 1472 1477 1481 1478 1480 1481 1483 1485 1485 1482 1481 1485 1485 1487 1489 1488 1477 1465 1455 1452 1448 1457 1463 1472 1472 1466 1459 1444 1434 1437 1443 1449 1449 1448 1447 1447
1403 1414 1424 1434 1443 1451 1458 1464 1469 1474 1477 1477 1479 1480 1481 1482 1485 1483 1482 1484 1480 1485 1484 1479 1463 1457 1450 1450 1443 1451 1452 1461 1458 1458 1456 1454 1435 1440 1445 1446 1447 1448 1449 1450
1400 1411 1421 1431 1440 1448 1456 1463 1466 1471 1476 1476 1475 1477 1479 1480 1480 1483 1481 1480 1481 1482 1480 1476 1464 1455 1449 1447 1451 1441 1449 1442 1439 1440 1440 1441 1441 1443 1444 1446 1446 1449 1449 1451
1399 1411 1421 1430 1439 1446 1453 1459 1464 1469 1471 1473 1473 1471 1473 1474 1475 1478 1480 1476 1479 1478 1479 1476 1470 1461 1448 1447 1440 1435 1440 1430 1433 1438 1436 1435 1441 1444 1445 1446 1448 1449 1450 1452
1401 1412 1421 1430 1438 1445 1451 1455 1460 1466 1470 1471 1466 1466 1466 1467 1469 1470 1471 1473 1475 1475 1474 1475 1468 1459 1449 1440 1439 1435 1430 1436 1433 1434 1433 1436 1440 1441 1443 1446 1447 1448 1450 1452
1404 1413 1422 1430 1437 1444 1450 1454 1457 1462 1469 1464 1462 1461 1460 1461 1462 1463 1464 1466 1469 1469 1471 1469 1462 1454 1451 1441 1438 1433 1431 1430 1435 1435 1435 1434 1438 1439 1442 1445 1447 1448 1450 1452
1406 1415 1423 1429 1436 1442 1448 1452 1455 1458 1462 1465 1461 1453 1452 1454 1455 1456 1457 1458 1461 1464 1463 1462 1457 1454 1454 1446 1435 1430 1430 1429 1431 1433 1436 1438 1439 1441 1442 1445 1447 1449 1450 1452
1409 1416 1422 1428 1434 1437 1442 1447 1446 1452 1460 1463 1460 1447 1444 1447 1449 1450 1451 1453 1452 1455 1457 1455 1454 1453 1452 1447 1435 1429 1431 1432 1434 1436 1436 1439 1440 1441 1443 1444 1447 1448 1451 1453
1411 1416 1422 1428 1433 1437 1443 1444 1446 1450 1457 1461 1456 1445 1443 1443 1444 1446 1446 1447 1449 1451 1450 1450 1448 1448 1447 1439 1430 1429 1430 1433 1435 1435 1436 1437 1439 1441 1443 1445 1447 1450 1452 1454
1412 1417 1422 1427 1432 1435 1439 1444 1446 1449 1455 1454 1451 1441 1434 1441 1441 1442 1443 1444 1445 1446 1445 1444 1446 1442 1437 1428 1424 1422 1427 1430 1432 1435 1436 1437 1439 1441 1444 1445 1448 1450 1453 1455
1414 1420 1424 1428 1432 1436 1441 1446 1448 1449 1448 1446 1443 1437 1435 1439 1440 1440 1440 1438 1436 1434 1433 1437 1436 1424 1423 1422 1422 1421 1425 1429 1431 1433 1436 1437 1439 1442 1444 1446 1449 1451 1453 1454
1418 1421 1426 1430 1433 1437 1441 1441 1443 1443 1441 1437 1431 1430 1431 1436 1436 1435 1435 1430 1427 1425 1426 1428 1421 1414 1416 1419 1421 1423 1426 1429 1431 1433 1434 1436 1438 1442 1444 1446 1448 1450 1452 1453
1419 1421 1426 1430 1432 1434 1436 1432 1432 1430 1419 1422 1421 1423 1427 1433 1434 1433 1432 1427 1426 1421 1427 1427 1418 1416 1420 1421 1422 1425 1427 1429 1431 1432 1434 1436 1439 1442 1444 1446 1448 1451 1452 1453
1420 1422 1425 1426 1427 1424 1422 1416 1412 1412 1413 1416 1419 1423 1427 1432 1433 1431 1427 1427 1426 1427 1426 1418 1413 1420 1421 1422 1425 1427 1428 1430 1431 1433 1435 1437 1440 1443 1445 1447 1449 1449 1451 1453
1419 1421 1421 1420 1417 1414 1406 1405 1403 1411 1412 1414 1418 1423 1425 1427 1428 1428 1426 1426 1426 1424 1419 1410 1416 1423 1424 1424 1427 1428 1430 1431 1433 1435 1437 1439 1440 1442 1445 1447 1449 1450 1452 1454
1418 1418 1413 1413 1411 1412 1413 1413 1413 1413 1414 1415 1418 1422 1422 1422 1426 1424 1425 1428 1420 1412 1407 1416 1424 1425 1425 1427 1428 1430 1431 1433 1435 1437 1438 1440 1442 1444 1446 1448 1449 1451 1453 1454
1417 1417 1415 1413 1413 1412 1413 1413 1413 1413 1414 1414 1414 1415 1417 1417 1416 1419 1417 1412 1407 1411 1421 1424 1424 1425 1426 1428 1429 1430 1433 1435 1437 1439 1440 1442 1444 1445 1447 1448 1450 1451 1453 1454
1416 1415 1415 1414 1413 1411 1412 1412 1413 1414 1415 1412 1410 1413 1411 1415 1412 1412 1411 1412 1419 1422 1424 1424 1424 1424 1426 1428 1429 1432 1434 1436 1438 1440 1441 1443 1445 1446 1448 1449 1450 1451 1452 1454
Wind_Speed
33 31 28 25 22 17 21 9 4 8 16 13 14 12 13 2 9 8 4 3 4 6 7 8 11 12 6 0 6 7 5 5 10 17 15 13 12 16 10 8 16 14 10 6
36 34 31 30 26 23 22 7 6 9 17 9 10 12 12 9 9 9 6 5 5 5 4 4 6 12 7 11 7 4 8 6 9 12 14 19 14 18 18 17 15 16 11 9
39 38 34 33 30 27 25 10 4 4 12 18 12 15 13 13 9 10 7 5 5 8 8 9 4 8 6 7 9 11 7 12 15 13 15 16 12 15 13 15 9 14 15 17
41 42 40 36 33 31 26 11 5 12 6 12 12 12 7 14 8 13 9 8 14 11 6 10 14 14 14 12 15 19 10 16 15 17 19 21 22 22 19 21 21 18 15 22
43 46 43 38 36 34 28 10 4 12 9 22 16 9 11 10 12 8 10 12 8 11 13 12 6 3 8 11 8 11 15 19 15 8 14 19 21 17 16 22 24 25 26 25
46 47 46 44 39 40 22 20 13 11 7 13 13 14 13 9 11 10 13 10 9 10 11 10 13 14 15 14 14 12 11 8 11 19 16 18 19 12 20 24 24 23 21 17
54 50 49 46 43 45 21 20 13 10 4 10 12 8 17 14 12 12 8 12 12 9 1 8 12 16 19 21 21 23 18 15 13 14 14 19 16 17 14 15 15 15 16 14
41 46 48 46 44 45 22 20 15 9 6 11 11 16 12 14 16 16 17 18 16 12 4 6 7 9 10 17 24 23 20 15 10 13 15 17 22 16 15 8 14 13 8 8
47 47 49 45 43 43 32 21 17 10 5 9 12 12 12 10 10 11 19 19 16 15 5 4 9 8 9 5 4 21 20 14 11 9 14 15 11 4 5 1 10 4 1 2
44 46 46 42 43 42 42 20 20 15 8 11 8 11 10 13 10 7 6 4 8 13 4 6 9 13 15 12 11 8 13 12 16 14 13 13 16 10 6 6 2 3 2 4
43 43 42 41 42 41 39 32 20 18 9 11 9 13 12 9 6 3 1 3 8 3 4 5 9 7 10 12 12 7 11 9 9 11 15 14 13 8 5 3 2 3 2 4
49 48 44 40 40 39 37 25 23 19 12 6 11 19 20 17 18 14 8 7 4 5 3 3 5 6 4 10 5 14 8 11 9 7 6 3 2 3 2 1 2 2 2 3
42 40 39 36 32 30 31 27 19 18 14 12 18 24 23 22 22 20 22 23 14 7 10 4 3 7 6 6 10 14 11 14 7 6 5 9 5 6 5 4 3 2 3 5
40 39 36 34 32 31 30 30 24 20 5 4 11 13 16 18 21 25 26 28 20 16 9 3 4 6 7 7 7 8 4 4 7 11 13 7 7 9 8 7 5 6 5 7
35 34 32 30 28 26 27 28 28 22 15 3 7 10 17 20 20 19 22 27 28 19 6 4 4 9 8 11 7 8 11 9 7 5 5 8 3 6 8 8 7 6 7 8
30 27 26 26 26 25 28 14 26 22 23 4 3 5 12 13 15 15 19 23 26 19 7 6 6 14 6 3 6 13 15 13 9 3 2 3 5 6 7 7 6 7 7 8
24 23 22 23 27 29 22 8 8 28 19 3 4 5 6 11 15 16 15 15 10 12 7 6 4 2 5 2 9 9 6 6 4 6 9 5 6 3 7 8 8 8 8 10
24 24 23 22 18 24 23 4 8 26 20 6 3 4 5 6 5 6 11 8 11 9 5 3 4 8 5 5 11 17 10 7 7 9 4 2 7 9 9 9 9 9 10 11
23 22 21 22 20 9 16 9 12 24 9 5 5 4 2 6 4 5 6 8 3 7 3 4 6 3 5 10 13 14 13 11 9 8 5 7 8 9 10 9 9 9 10 11
25 26 7 4 10 9 15 8 7 8 8 6 4 10 3 6 5 4 5 6 3 5 6 9 4 6 13 7 5 6 12 9 11 11 8 8 9 10 10 9 9 9 11 11
12 5 4 9 20 10 7 6 7 7 4 8 10 21 8 6 5 2 4 3 4 3 4 3 3 4 6 7 9 8 10 10 9 5 4 7 9 12 12 11 10 10 11 12
9 8 13 16 8 6 5 5 5 6 6 11 7 7 9 5 4 4 4 2 2 2 5 3 3 3 1 5 9 11 11 9 6 5 7 8 11 12 11 11 10 10 10 12
9 4 5 5 5 7 5 8 5 5 7 8 9 4 6 5 4 3 3 3 3 2 3 3 2 4 4 9 11 12 10 9 9 8 8 10 12 11 10 10 10 11 10 10
3 4 4 4 5 5 5 3 0 4 5 13 14 6 3 4 5 2 3 1 2 3 3 3 5 4 3 9 11 11 10 10 9 9 10 11 12 12 12 9 7 8 8 9
2 3 3 5 3 3 3 3 1 1 8 17 9 3 6 2 2 3 2 3 4 5 2 3 3 2 5 8 10 10 11 10 8 8 8 8 8 9 9 9 8 7 7 8
0 2 3 2 3 3 3 4 3 6 9 10 5 3 3 4 3 4 5 3 3 2 2 1 2 4 5 7 10 12 12 10 9 8 8 8 8 8 8 8 7 7 7 8
2 1 2 3 5 3 1 4 5 8 12 4 2 3 2 2 2 3 1 1 2 2 3 3 4 6 8 11 12 12 12 10 9 9 8 7 8 8 8 9 8 7 7 8
Wind_Direction
221 217 212 214 204 203 187 189 216 191 177 189 212 230 230 124 202 195 198 282 276 253 268 262 262 268 250 329 292 269 257 279 271 266 275 274 265 278 269 257 267 271 277 273
219 216 212 207 198 195 179 196 184 182 186 205 208 230 211 229 209 209 198 236 246 263 246 276 279 266 283 300 261 299 299 242 260 261 238 233 248 256 260 270 276 270 278 272
218 213 209 203 196 188 181 174 167 187 204 231 230 212 215 212 225 241 223 251 225 240 242 243 243 239 241 264 265 14 324 267 267 273 292 312 275 276 294 290 267 276 265 285
217 208 207 197 194 182 188 194 222 188 178 225 224 223 224 212 194 224 213 225 229 231 221 262 249 245 261 272 267 260 247 262 267 275 284 286 285 286 292 284 283 277 298 284
219 203 203 191 188 179 192 181 193 175 231 199 212 198 218 221 213 194 218 232 211 223 237 212 250 256 256 268 266 293 226 251 263 263 271 267 263 263 262 264 268 271 274 280
217 210 195 192 186 180 195 200 210 211 209 186 197 218 215 234 243 212 243 238 250 243 254 279 275 277 274 260 268 254 254 254 248 264 264 272 264 244 237 256 260 263 269 281
211 197 194 192 191 189 187 190 192 205 206 215 201 212 220 224 229 235 226 231 243 267 330 313 280 263 261 260 250 239 248 244 249 264 278 269 270 258 257 249 261 276 281 287
207 200 189 189 193 193 189 181 188 189 213 201 212 210 218 222 231 234 255 254 257 266 299 279 271 251 246 241 237 234 225 242 256 249 253 262 271 235 228 242 277 283 294 307
205 197 198 193 198 195 198 199 195 194 231 214 221 227 244 251 250 256 253 250 250 251 206 216 247 250 246 244 232 207 222 219 233 245 235 255 269 128 82 71 275 69 275 250
195 197 196 198 200 200 203 196 199 190 219 241 231 213 224 218 230 240 224 205 235 212 189 214 247 249 254 248 244 178 192 203 225 230 255 268 282 127 127 250 342 165 286 147
192 189 194 196 196 199 200 203 204 202 225 231 212 233 236 222 220 231 124 268 219 164 227 226 237 252 250 239 252 192 184 201 218 235 250 262 260 112 231 62 134 147 157 140
187 186 187 189 197 200 197 205 211 216 223 234 221 241 243 245 257 266 246 252 224 217 235 239 284 256 262 232 247 206 220 214 215 217 210 356 268 36 152 256 229 203 159 147
182 178 181 185 193 196 200 204 204 201 220 250 255 252 251 250 243 245 258 251 247 247 250 284 270 262 264 238 237 253 263 229 254 271 287 276 213 228 217 199 201 174 155 164
174 179 183 187 195 201 204 208 209 203 179 245 262 254 248 242 239 240 241 244 251 247 248 263 267 260 280 273 285 285 335 295 260 259 260 241 251 235 215 199 182 162 155 168
172 178 185 191 192 196 204 211 217 206 195 267 261 273 249 242 239 241 243 232 236 237 241 215 238 269 278 265 281 260 258 256 251 256 284 287 317 212 195 194 190 180 167 160
174 178 182 190 196 189 187 192 214 209 220 230 261 280 252 234 227 235 230 225 226 224 187 225 246 257 271 285 277 270 254 262 282 270 148 106 122 141 166 180 178 169 166 168
170 179 186 180 181 182 168 180 177 185 195 182 267 247 195 231 239 238 236 228 215 197 201 223 223 253 239 246 245 265 295 261 216 176 138 129 159 167 158 157 158 155 158 162
163 165 171 180 189 181 185 162 166 173 180 181 249 260 213 189 194 191 191 176 178 200 213 221 222 226 206 253 249 261 229 194 194 179 186 130 158 150 154 154 152 158 157 158
152 150 159 158 167 159 175 140 144 177 174 200 213 245 235 178 187 187 176 173 177 187 215 204 176 184 222 241 248 233 194 187 183 181 171 155 159 164 164 160 161 167 164 160
147 143 124 122 145 149 168 185 189 201 217 225 244 242 228 176 182 207 190 200 190 192 201 158 221 240 238 242 270 219 181 190 173 168 172 174 174 173 169 166 167 172 168 165
142 134 93 131 146 140 166 184 195 181 218 214 230 225 224 205 223 214 232 219 187 229 157 227 233 242 206 221 217 181 167 169 167 174 180 186 182 176 168 164 162 165 167 166
157 143 129 148 173 181 196 192 188 209 218 175 207 192 172 159 178 224 230 230 222 235 142 228 250 98 73 192 166 154 147 148 145 150 151 155 164 168 167 163 162 164 165 174
142 143 148 176 176 216 221 183 197 200 162 169 151 125 129 143 202 253 231 200 203 163 205 230 48 91 150 149 151 141 132 125 122 122 132 144 150 156 161 160 167 184 184 180
146 175 177 232 175 229 221 307 310 78 147 160 147 122 156 156 184 205 218 102 213 216 230 217 106 120 118 144 147 141 131 128 124 126 137 149 156 163 171 181 187 188 185 184
173 205 221 218 277 298 304 273 248 143 166 152 142 162 150 149 135 212 144 174 226 222 234 68 82 170 167 154 153 157 160 153 150 147 147 152 159 165 167 164 167 175 184 189
189 238 244 241 257 174 220 221 172 164 176 178 187 146 174 189 177 186 214 217 226 98 63 73 147 134 154 166 171 171 168 166 164 162 163 167 170 170 169 172 177 183 188 193
236 206 277 294 301 30 169 189 166 179 184 203 165 154 166 111 213 205 239 315 54 108 118 122 145 144 175 170 170 172 173 176 176 174 174 180 185 190 192 195 194 194 196 198